POLAR SCOUT KODIAK

Satellite information

Favourite Embed

Satellite Type and Status

PAYLOADIN ORBIT

Key statistics

Satellite POLAR SCOUT KODIAK at a glance.

Uptime

2351

Days in orbit

Revolutions

≈ 15.3

Per day

Orbit

SSO

Sun Synchronous Orbit

Inclination

97.5

Latest

Satellite identification and parameters

Extended collection of information and parameters for POLAR SCOUT KODIAK.

Object identification

Identified? True

Debris? False

Object name: POLAR SCOUT KODIAK

International designator: 2018-099G

Object number (NORAD): 43764

Object ID (CCSDS): 43764

Country: UNITED STATES OF AMERICA (US)

Current information (Y/N): Y

RCS size: MEDIUM

Orbital parameters

Period: 94.097 minutes

Inclination: 97.4697 deg

SMA: 6852.967 km

Apoapsis: 481.821 km

Periapsis: 467.844 km

RAAN: 198.4685 deg

Eccentricy: 0.0010198

Argument of periapsis: 231.2208 deg

Mean anomaly: 128.8122 deg

Mean motion: 15.30328902 rev/day

Mean motion (dot): 0.00020424 rev/day2

B* drag term: 0.00069669 1/REarth

Two-line elements (TLE)

Creation date: May 11, 2025, 2:40 a.m.

Reference frame: TEME

Reference center: EARTH

Epoch: May 10, 2025, 4:37 p.m. UTC

TLE line 0: 0 POLAR SCOUT KODIAK

TLE line 1: 1 43764U 18099G 25130.69258792 .00020424 00000-0 69669-3 0 9991

TLE line 2: 2 43764 97.4697 198.4685 0010198 231.2208 128.8122 15.30328902352733

Live tracking on map

Real-time ground track for satellite POLAR SCOUT KODIAK.

In-orbit conjunctions

There are no conjunctions computed for POLAR SCOUT KODIAK, at the moment. Check back to stay up to date, as we update our databases every day.

Go to all conjunctions

Associated space launch

Dedicated rideshare launching payloads into sun-synchronous orbit. Payloads include ORS-6, EU:CROPIS, STPSat-5, BlackSky Global-1 to -4, HawkEye Pathfinder 1-3, Iceye, NEXTSat-1, 2 SkySats, Centauri II, and a Flock of Doves.

POLAR SCOUT KODIAK was lifted into orbit during the mission ‘Falcon 9 Block 5 | Spaceflight SSO-A’, on board a Falcon 9 space rocket.

The launch took place on Dec. 3, 2018, 6:34 p.m. from Space Launch Complex 4E.

For more information about the launch, click the button.

Launch to space Falcon 9 Block 5 | Spaceflight SSO-A
Falcon 9 Block 5 | Spaceflight SSO-A

Agency: N/A

Status: Launch Successful

Launch date: Dec. 3, 2018, 6:34 p.m. UTC

Rocket: Falcon 9

Launch pad: Space Launch Complex 4E

Location: Vandenberg SFB, CA, USA

...

Latest news about this satellite

There are no fresh news available about this satellite. Check back as we update our databases every day.


Newsletter sign-up

Weekly statistics, charts and insights to help you stay on top of the space industry.